Regional Weather Roundup
Issued by NWS Wakefield, VA

Home | Current Version | Previous Version | Graphics & Text | Print | Product List | Glossary On
Versions: 1 2 3 4 5 6 7 8 9 10 11 12 13 14 15 16 17 18 19 20 21 22 23 24 25 26 27 28 29 30 31 32 33 34 35 36 37 38 39 40
000
ASUS41 KAKQ 282215
RWRAKQ

REGIONAL WEATHER ROUNDUP
NATIONAL WEATHER SERVICE WAKEFIELD VA
600 PM EDT TUE JUL 28 2015

Note: "fair" indicates few or no clouds below 12,000 feet with no
significant weather and/or obstructions to visibility. * = Denotes
station may not report precipitation (e.g., rain,snow,etc.),
thunder or fog.

VAZ042-051-052>054-056-282300-
NORTHERN VIRGINIA

CITY           SKY/WX    TMP DP  RH WIND       PRES   REMARKS
WASH NATIONAL  PTSUNNY   90  74  59 SE10      29.94F HX  99
DULLES         MOSUNNY   87  70  56 CALM      29.94F
FORT BELVOIR   SUNNY     89  74  63 SE12      29.94F HX  98
QUANTICO       CLOUDY    82  74  76 S15       29.97R
FREDERICKSBRG* HVY RAIN  78  78 100 SW10      29.99R
STAFFORD*      CLOUDY    76  72  86 SW7       30.03R
WARRENTON      MOSUNNY   85  78  79 E5        29.95S HX  96
CULPEPER*      PTSUNNY   86  74  66 CALM      29.95F
MANASSAS*      NOT AVBL
LEESBURG*      PTSUNNY   91  72  52 E7        29.95F HX  98
WINCHESTER     PTSUNNY   88  70  55 E3        29.96F
FRONT ROYAL*   FAIR      86  73  66 SE5       29.95F
LURAY*         FAIR      82  73  74 CALM      29.98S
$$

VAZ048-049-060>072-079>083-282300-
CENTRAL AND SOUTH CENTRAL VIRGINIA

CITY           SKY/WX    TMP DP  RH WIND       PRES   REMARKS
RICHMOND       PTSUNNY   83  73  72 S10       29.97F
CHESTERFIELD*  FAIR      81  64  57 S3        29.99F
PETERSBURG*    LGT RAIN  78  78 100 CALM      29.99R
HANOVER        PTSUNNY   80  71  74 SE3       30.00R
TAPPAHANNOCK*  PTSUNNY   77  73  87 CALM      29.98S
QUINTON*       FAIR      82  74  75 S3        29.96F
CHARLOTTSVILLE PTSUNNY   83  75  77 NE5       29.97R
GORDONSVILLE*  MOCLDY    77  73  88 S9        29.98R
ORANGE*        TSTM      77  73  88 SE9G18    30.01R VSB 1/2
LOUISA*        PTSUNNY   79  75  89 CALM      29.98R
BUMPASS*       MOCLDY    80  74  82 CALM      29.99R
FARMVILLE*     DRIZZLE   78  77  96 SW7       29.97S
CREWE*         MOCLDY   N/A N/A N/A SW3       29.98R
FORT PICKETT*  CLOUDY    78  75  91 SW5       29.99R
CHASE CITY*    CLOUDY    74  74 100 CALM      29.99F
CLARKSVILLE*   CLOUDY    73  73 100 CALM      29.99F
SOUTH HILL*    CLOUDY    76  75  96 CALM      30.03F
LAWRENCEVILLE* FAIR      82  77  83 S3        29.97F
EMPORIA*       PTSUNNY   84  72  65 S3        29.98S
$$

VAZ088>098-282300-
SOUTHEAST VIRGINIA

CITY           SKY/WX    TMP DP  RH WIND       PRES   REMARKS
NORFOLK        MOSUNNY   86  63  45 S6        29.97F
VIRGINIA BEACH PTSUNNY   86  71  60 SE8       29.97F
NORFOLK NAVAL  PTSUNNY   86  67  52 VRB5      29.98F
WEST POINT*    CLOUDY    86  72  61 S3        29.98F
SALUDA*        MOCLDY    82  75  79 S6        29.97S
NEWPORT NEWS   PTSUNNY   87  72  60 SW10      29.97F
LANGLEY AFB    NOT AVBL
FORT EUSTIS    PTSUNNY   86  69  56 S8        29.95F
WILLIAMSBURG*  CLOUDY    90  75  62 SW3       29.98S HX 100
HR EXEC AP*    FAIR      88  70  55 S6        29.98F
FRANKLIN*      CLOUDY    83  73  71 CALM      29.97F
WAKEFIELD      CLOUDY    83  76  79 CALM      29.98F
$$

VAZ020-022-025-037-045-282300-
WEST CENTRAL AND SOUTHWEST VIRGINIA

CITY           SKY/WX    TMP DP  RH WIND       PRES   REMARKS
STAUNTON*      PTSUNNY   85  72  63 E8        30.00F
WAYNESBORO*    MOCLDY    81  71  71 SE3       30.00F
HOT SPRINGS VA PTSUNNY   76  69  77 SE3       30.12S
LYNCHBURG      PTSUNNY   80  73  79 S16G26    29.99S
DANVILLE       LGT RAIN  76  73  91 S7        30.00S FOG
SOUTH BOSTON*  CLOUDY    73  72  95 SE3       30.01S
MARTINSVILLE   PTSUNNY   84  74  70 SE7       30.00S
ROANOKE        PTSUNNY   83  70  64 NW3       30.00R
BLACKSBURG     PTSUNNY   82  74  74 E8        30.06S
DUBLIN*          N/A     77  72  84 W3        30.04S
MARION*        PTSUNNY   84  68  59 NE5       30.08S
HILLSVILLE*    MOSUNNY   76  70  80 CALM      30.05F
RICHLANDS*     FAIR      82  72  72 E3        30.06S
WISE*          MOSUNNY   88  63  42 NW6       30.08S
ABINGDON*      PTSUNNY   85  66  51 NW5       30.03S
$$

MDZ021>025-VAZ099-100-282300-
SOUTHERN MARYLAND AND THE DELMARVA PENINSULA

CITY           SKY/WX    TMP DP  RH WIND       PRES   REMARKS
PATUXENT RIVER PTSUNNY   83  74  74 S5        29.95F
BAY BRIDGE APT   N/A     86  70  58 W3        29.95F
LEONARDTOWN    MOSUNNY   81  72  74 SW6       29.98F
DOVER          SUNNY     84  74  73 SE12      29.95S
GEORGETOWN     MOSUNNY   80  71  74 S14       29.98R
EASTON         MOSUNNY   90  75  62 W6        29.99  HX 100
CAMBRIDGE      SUNNY     86  70  58 S6        29.96F
SALISBURY      MOSUNNY   80  74  81 SE8       29.98R
OCEAN CITY     PTSUNNY   81  72  74 SW9       29.98F
WALLOPS ISLAND MOSUNNY   83  72  69 S13       29.99S
ACCOMACK*      SUNNY    N/A N/A N/A SE8       29.98F
$$

NCZ012>017-030>032-282300-
NORTH CENTRAL AND EASTERN NORTH CAROLINA

CITY           SKY/WX    TMP DP  RH WIND       PRES   REMARKS
ROANOKE RAPIDS FAIR      84  70  61 SW5       29.98S
RALEIGH        LGT RAIN  86  71  60 SE3       29.97F
ELIZABETH CITY CLOUDY    84  70  62 SE9       29.97F
AHOSKIE*       PTSUNNY   85  71  60 S5        29.96F
EDENTON*         N/A     85  69  58 S6        29.97F
CURRITUCK*     CLOUDY    86  66  51 CALM      29.98F
KILL DEVIL HLS CLOUDY    86  69  56 SE6       29.97F
MANTEO         CLOUDY    82  69  64 S8        29.99F
CAPE HATTERAS  SUNNY     85  70  60 SE8       29.99S
TARBORO*         N/A     85  73  67 SE3       29.96F
GOLDSBORO      PTSUNNY   88  73  60 SE5       29.94S HX  95
WASHINGTON     MOSUNNY   85  69  58 E9        29.98S
GREENVILLE     PTSUNNY   88  70  55 SE6       29.98F
NEW BERN       SUNNY     87  68  52 SE10      29.98F
WILMINGTON     SUNNY     84  69  60 E7        29.97S
$$

VAZ048-282300-
ELSEWHERE

CITY           SKY/WX    TMP DP  RH WIND       PRES   REMARKS
HARRISBURG PA  MOSUNNY   88  73  61 CALM      29.95F HX  95
BALTIMORE      MOSUNNY   89  65  44 E6        29.94F
ANNAPOLIS      SUNNY     85  72  65 SE8       29.95F
ANDREWS AFB    MOSUNNY   86  74  66 E12       29.95F
PHILADELPHIA   MOSUNNY   91  68  46 SW9       29.95S HX  95
HENDERSON NC   CLOUDY    79  72  79 N7        29.99S
GREENSBORO     PTSUNNY   84  71  65 S12       29.97S
ROCKY MOUNT    CLOUDY    86  69  56 CALM      29.97S
$$

VAZ100-282300-
MARINE

STATION/POSITION TIME  TEMP    WIND        PRES    WAVE   SWELL
                       AIR SEA DIR/SP/G            HT/PER HT/PER
                 (UTC) (F)     (DEG/KT/KT) (MB)    (FT/S) (FT/S)
BRANDYWINE LGT   2100   78 78  180/ 13/ 15 1015.2R
CAPE MAY NJ      2100   81 82  180/  8/ 12 1014.8R
LEWES DE         2100   83 77  160/  9/ 14 1014.9R
15NM E FENWICK I 2150   79 79  190/ 12/ 14 1015.3S   3/ 6   2/ 6
OCEAN-CITY-INLET 2100   78 76  210/ 13/ 16 1014.8R
WACHAPREAGUE VA  2100   83 86  190/  9/ 13 1015.6S
GOOSES REEF MD   2200   84 83  180/ 10/ 12 1015.3F
COVE POINT MD    2100   82     190/ 12/ 14 1015.6S
SOLOMONS ISLAND  2100      82                N/A
BISHOPS HEAD MD  2100   84 86  200/ 12/ 14 1014.4R
POTOMAC MD       2200   83 84  270/ 10/ 12 1013.4F   1/ 3
CAMBRIDGE MD     2100   86 83  200/  4/  5 1014.2R
LEWISETTA VA     2100   82 86  250/ 13/ 15 1014.8R
RAPPAHANNOCK LGT 2100          180/ 10/ 11 1015.8F
STINGRAY PT      2200   84 83  180/ 12/ 14 1014.8F   2/ 3
YORK RVR RNG VA  2100   83     150/ 10/ 11 1014.7R
YORKTOWN VA      2100   84 83  240/  5/  6 1014.8S
JAMESTOWN VA     2200   83 85   CALM  /  4   N/A
DOMINION TERM VA 2100   85     240/ 10/ 11 1015.2R
KIPTOPEKE VA     2100      84  150/  9/ 11   N/A
CHES BAY BRIDGE  2100   85 79  180/  7/  8 1014.7S
CAPE HENRY VA    2100   82     140/ 12/ 15   N/A
CHESAPEAKE LGHT  2100   80     160/ 11/ 12 1016.3R
WILLOUBY STN VA  2100   85     250/  7/  9 1016.2R
CAPE HENRY BUOY  2128      82                N/A     2/ 7
1ST LANDING BUOY 2200      82              1014.6F   2/ 3
CAPE CHARLES BUO 2126      82                N/A     2/11   2/11
OFFSHORE WE BUOY 2111      82                N/A     2/11   2/11
64NM E OF VA BCH 2150   81 82  200/  2/  4 1015.4F   2/ 7   2/ 7
DUCK PIER NC     2100   81 77  120/ 12/ 13 1014.6F
44100 DUCK FRF   2124      82                N/A     2/11   2/11
44056 DUCK FRF   2111      81                N/A     2/11   2/11
OREGON INLET NC  2100   83 86  110/  7/ 11 1015.5F
HATTERAS NC      2100   83 83  120/  6/  8 1015.4F
CAPE LOOKOUT NC  2200   81      70/ 10/ 11 1014.8F
$$


USA.gov is the U.S. government's official web portal to all federal, state and local government web resources and services.